WX4MMM Weather Reports


time (UTC)temp
C
wind
direction
speed
KPH
gust
KPH
rain 1hr
cm
rain 24hr
cm
rain mn
cm
humidity
%
barometer
mb
20260502195003 14 98 1.6 4.8 0.00 0.36 0.25 76 1011.4
20260502194003 13 244 1.6 4.8 0.00 0.36 0.25 75 1011.4
20260502193502 13 196 1.6 8.0 0.00 0.36 0.25 75 1011.6
20260502192502 13 97 0.0 4.8 0.00 0.36 0.25 80 1011.6
20260502192003 13 99 0.0 3.2 0.00 0.36 0.25 80 1011.5
20260502191502 13 267 0.0 3.2 0.00 0.36 0.25 79 1011.6
20260502191003 13 71 1.6 3.2 0.00 0.36 0.25 78 1011.6
20260502190502 13 171 0.0 3.2 0.00 0.36 0.25 79 1011.7
20260502190003 13 174 3.2 4.8 0.00 0.36 0.25 76 1011.8
20260502185502 13 304 1.6 4.8 0.00 0.36 0.25 77 1011.8
20260502185003 13 347 1.6 4.8 0.00 0.36 0.25 79 1011.8
20260502184502 13 215 1.6 4.8 0.00 0.36 0.25 83 1011.8
20260502184003 13 332 3.2 4.8 0.00 0.36 0.25 79 1011.9
20260502183003 13 250 1.6 4.8 0.00 0.36 0.25 81 1011.9
20260502182502 12 240 1.6 4.8 0.00 0.36 0.25 81 1012.0
20260502182003 12 63 1.6 3.2 0.00 0.36 0.25 83 1012.2
20260502181002 12 251 0.0 3.2 0.00 0.36 0.25 82 1012.3
20260502180502 12 205 1.6 4.8 0.00 0.36 0.25 82 1012.3
20260502170503 12 286 1.6 4.8 0.00 0.36 0.25 84 1012.5
20260502164003 12 90 0.0 1.6 0.03 0.36 0.25 90 1013.2
20260502163503 12 80 0.0 1.6 0.03 0.36 0.23 88 1013.3
20260502163002 12 229 1.6 3.2 0.05 0.36 0.23 88 1013.5
20260502162503 12 29 1.6 3.2 0.05 0.36 0.23 89 1013.6
20260502161503 12 62 0.0 3.2 0.03 0.33 0.25 89 1013.8
20260502161003 12 21 1.6 3.2 0.03 0.33 0.25 87 1013.8
20260502160502 12 23 1.6 3.2 0.03 0.33 0.23 87 1013.8
20260502152003 12 27 0.0 3.2 0.05 0.28 0.23 87 1013.3
20260502151502 12 37 1.6 3.2 0.05 0.28 0.23 88 1013.5
20260502151003 12 7 1.6 3.2 0.05 0.25 0.23 87 1013.4
20260502150503 12 242 0.0 1.6 0.05 0.25 0.20 89 1013.5
20260502130503 11 87 1.6 3.2 0.03 0.10 0.10 86 1012.7
20260502123503 11 292 1.6 3.2 0.03 0.10 0.08 86 1012.6
20260502122502 11 2 1.6 1.6 0.05 0.10 0.08 87 1012.2
20260502122002 11 357 1.6 3.2 0.05 0.10 0.08 87 1012.3
20260502120502 11 307 0.0 1.6 0.05 0.08 0.08 87 1012.4
20260502115503 11 57 0.0 0.0 0.05 0.08 0.05 87 1012.3
20260502115003 11 343 0.0 0.0 0.05 0.08 0.05 86 1012.4
20260502114502 11 348 1.6 1.6 0.05 0.05 0.05 86 1012.5
20260502113502 11 350 0.0 1.6 0.05 0.05 0.05 88 1012.4
20260502113004 11 327 0.0 1.6 0.05 0.05 0.05 88 1012.3
20260502112503 11 260 0.0 3.2 0.05 0.05 0.05 88 1012.5
20260502112003 11 210 0.0 0.0 0.03 0.05 0.03 88 1012.5
20260502111502 11 72 0.0 1.6 0.03 0.05 0.03 87 1012.6
20260502111003 11 304 1.6 1.6 0.03 0.05 0.03 86 1012.6
20260502110503 11 327 0.0 1.6 0.03 0.03 0.03 85 1012.5
20260502110003 11 349 0.0 1.6 0.03 0.03 0.03 85 1012.6
20260502105503 11 45 0.0 1.6 0.03 0.03 0.03 85 1012.6
20260502104502 11 328 1.6 1.6 0.00 0.03 0.00 84 1012.7
20260502104003 11 22 1.6 1.6 0.00 0.03 0.00 83 1012.6
20260502103503 11 1 0.0 1.6 0.00 0.03 0.00 84 1012.6
20260502103003 11 97 0.0 3.2 0.00 0.03 0.00 84 1012.7
20260502101503 11 27 1.6 3.2 0.00 0.03 0.00 86 1012.6
20260502101003 11 156 1.6 3.2 0.00 0.03 0.00 86 1012.5
20260502100502 11 7 0.0 1.6 0.00 0.03 0.00 87 1012.6
20260502091003 11 314 0.0 0.0 0.00 0.03 0.00 90 1012.5
20260502090503 11 314 0.0 1.6 0.00 0.03 0.00 90 1012.4
20260502071003 10 352 0.0 0.0 0.00 0.03 0.00 92 1011.9
20260502070502 10 352 0.0 0.0 0.00 0.03 0.00 92 1011.8
20260502070002 10 352 0.0 1.6 0.00 0.03 0.00 92 1011.8
20260502065003 10 332 0.0 0.0 0.00 0.03 0.00 92 1011.8
20260502064503 10 332 0.0 1.6 0.00 0.03 0.00 91 1011.9
20260502064003 10 306 1.6 1.6 0.00 0.03 0.00 91 1011.9
20260502063503 10 274 0.0 0.0 0.00 0.03 0.00 91 1011.8
20260502063003 10 274 0.0 0.0 0.00 0.03 0.00 91 1011.8
20260502062502 10 274 0.0 0.0 0.00 0.03 0.00 91 1011.9
20260502062003 10 274 0.0 0.0 0.00 0.03 0.00 91 1012.0
20260502061503 10 274 0.0 0.0 0.00 0.03 0.00 91 1012.0
20260502060003 10 274 0.0 0.0 0.00 0.03 0.00 90 1012.0
20260502055502 10 274 0.0 1.6 0.00 0.03 0.00 90 1012.1
20260502055003 10 288 1.6 1.6 0.00 0.03 0.00 90 1012.1
20260502054503 10 317 0.0 1.6 0.00 0.03 0.00 90 1012.1
20260502054003 10 219 0.0 0.0 0.00 0.03 0.00 90 1012.3
20260502053503 10 219 0.0 0.0 0.00 0.03 0.00 90 1012.2
20260502053003 10 219 0.0 0.0 0.00 0.03 0.00 90 1012.2
20260502052503 10 219 0.0 0.0 0.00 0.03 0.00 90 1012.3
20260502052003 10 219 0.0 0.0 0.00 0.03 0.00 90 1012.3
20260502051503 11 219 0.0 0.0 0.00 0.03 0.00 90 1012.5
20260502051003 11 219 0.0 1.6 0.00 0.03 0.00 90 1012.5
20260502050503 11 302 0.0 0.0 0.00 0.03 0.00 89 1012.5
20260502050004 11 302 0.0 1.6 0.00 0.03 0.00 89 1012.5
20260502045503 11 242 0.0 1.6 0.00 0.03 0.00 89 1012.6
20260502045003 11 304 0.0 0.0 0.00 0.03 0.00 89 1012.6
20260502044503 10 287 0.0 1.6 0.00 0.03 0.00 90 1012.5
20260502044004 10 355 0.0 1.6 0.00 0.03 0.00 90 1012.6
20260502043503 11 344 0.0 0.0 0.00 0.03 0.00 89 1012.6
20260502043002 11 344 0.0 0.0 0.00 0.03 0.00 89 1012.6
20260502042503 11 344 0.0 1.6 0.00 0.03 0.00 89 1012.6
20260502042004 11 337 0.0 0.0 0.00 0.03 0.00 89 1012.7
20260502041503 11 337 1.6 1.6 0.00 0.03 0.00 89 1012.7
20260502041003 11 220 0.0 0.0 0.00 0.03 0.00 89 1012.9
20260502040503 11 241 0.0 0.0 0.00 0.03 0.00 88 1012.9
20260502035502 11 335 0.0 1.6 0.00 0.00 0.00 88 1012.9
20260502035003 11 324 1.6 1.6 0.00 0.00 0.00 88 1012.9
20260502034003 11 38 0.0 0.0 0.00 0.00 0.00 88 1012.9
20260502033503 11 38 0.0 0.0 0.00 0.00 0.00 87 1012.9
20260502033004 11 38 0.0 0.0 0.00 0.00 0.00 87 1012.8
20260502032503 11 38 0.0 0.0 0.00 0.00 0.00 87 1012.9
20260502031503 11 147 0.0 0.0 0.00 0.00 0.00 86 1012.9
20260502031003 11 147 0.0 0.0 0.00 0.00 0.00 86 1013.0
20260502030503 11 147 0.0 1.6 0.00 0.00 0.00 85 1013.0
20260502030003 11 115 0.0 0.0 0.00 0.00 0.00 85 1013.0
20260502025503 11 115 0.0 1.6 0.00 0.00 0.00 84 1013.1
20260502025003 11 47 0.0 0.0 0.00 0.00 0.00 84 1013.1
20260502024504 11 47 0.0 0.0 0.00 0.00 0.00 84 1013.0
20260502023504 11 106 0.0 1.6 0.00 0.00 0.00 84 1013.0
20260502023004 11 177 0.0 1.6 0.00 0.00 0.00 84 1013.0
20260502022503 11 187 0.0 1.6 0.00 0.00 0.00 84 1013.1
20260502022003 11 89 0.0 0.0 0.00 0.00 0.00 84 1013.2
20260502021503 11 190 0.0 1.6 0.00 0.00 0.00 83 1013.2
20260502021003 11 92 0.0 1.6 0.00 0.00 0.00 83 1013.1
20260502020503 11 86 0.0 1.6 0.00 0.00 0.00 83 1013.1
20260502020003 11 215 0.0 1.6 0.00 0.00 0.00 83 1013.2
20260502015503 11 307 0.0 0.0 0.00 0.00 0.00 82 1013.1
20260502015003 11 107 0.0 0.0 0.00 0.00 0.00 82 1013.1
20260502014004 11 71 0.0 1.6 0.00 0.00 0.00 82 1013.1
20260502013503 11 48 0.0 1.6 0.00 0.00 0.00 82 1013.0
20260502013003 11 249 0.0 1.6 0.00 0.00 0.00 82 1013.0
20260502012503 11 153 0.0 1.6 0.00 0.00 0.00 83 1013.0
20260502012003 11 129 0.0 1.6 0.00 0.00 0.00 82 1013.1
20260502011503 11 353 0.0 1.6 0.00 0.00 0.00 82 1013.1
20260502011004 11 283 0.0 1.6 0.00 0.00 0.00 82 1013.0
20260502010004 11 76 0.0 1.6 0.00 0.00 0.00 80 1012.8
20260502005503 11 341 0.0 1.6 0.00 0.00 0.00 80 1012.8
20260502005003 11 52 0.0 1.6 0.00 0.00 0.00 79 1012.9
20260502004503 11 93 0.0 1.6 0.00 0.00 0.00 78 1012.9
20260502004004 11 245 0.0 3.2 0.00 0.00 0.00 78 1012.7
20260502003004 12 139 0.0 0.0 0.00 0.00 0.00 76 1012.5
20260502002503 12 351 0.0 0.0 0.00 0.00 0.00 76 1012.5
20260502002003 12 191 1.6 4.8 0.00 0.00 0.00 76 1012.4
20260502001503 12 204 0.0 3.2 0.00 0.00 0.00 75 1012.4
20260502001003 12 257 1.6 8.0 0.00 0.00 0.00 75 1012.5
20260502000503 12 166 1.6 4.8 0.00 0.00 0.00 74 1012.5
20260502000003 12 97 1.6 3.2 0.00 0.00 0.00 76 1012.4
20260501235503 12 46 1.6 4.8 0.00 0.00 0.00 75 1012.5
20260501235003 13 28 1.6 3.2 0.00 0.00 0.00 75 1012.5
20260501234503 13 186 0.0 1.6 0.00 0.00 0.00 74 1012.5
20260501234004 13 233 0.0 1.6 0.00 0.00 0.00 74 1012.5
20260501232503 13 204 1.6 4.8 0.00 0.00 0.00 74 1012.4
20260501232003 13 203 1.6 3.2 0.00 0.00 0.00 74 1012.2
20260501231504 13 316 1.6 3.2 0.00 0.00 0.00 74 1012.3
20260501231003 13 251 1.6 4.8 0.00 0.00 0.00 72 1012.2
20260501230503 13 149 1.6 4.8 0.00 0.00 0.00 72 1012.3
20260501230003 13 204 1.6 4.8 0.00 0.00 0.00 71 1012.3
20260501225004 13 172 0.0 3.2 0.00 0.00 0.00 72 1012.3
20260501224503 13 275 1.6 3.2 0.00 0.00 0.00 71 1012.5
20260501224003 14 242 1.6 4.8 0.00 0.00 0.00 70 1012.6
20260501223504 14 151 1.6 4.8 0.00 0.00 0.00 69 1012.7
20260501223004 14 211 1.6 4.8 0.00 0.00 0.00 69 1012.8
20260501222503 14 286 1.6 4.8 0.00 0.00 0.00 69 1012.8
20260501222004 13 173 3.2 4.8 0.00 0.00 0.00 69 1012.8
20260501221003 13 247 1.6 3.2 0.00 0.00 0.00 69 1012.9
20260501220503 13 218 1.6 3.2 0.00 0.00 0.00 69 1013.0
20260501215503 13 252 1.6 4.8 0.00 0.00 0.00 69 1013.1
20260501215003 13 232 1.6 4.8 0.00 0.00 0.00 69 1013.0
20260501214503 13 49 0.0 1.6 0.00 0.00 0.00 70 1013.0
20260501213503 13 195 1.6 8.0 0.00 0.00 0.00 70 1013.1
20260501213004 13 245 3.2 4.8 0.00 0.00 0.00 68 1013.1
20260501212004 13 194 1.6 8.0 0.00 0.00 0.00 67 1012.9
20260501211503 14 218 1.6 8.0 0.00 0.00 0.00 68 1013.0
20260501210504 14 133 1.6 8.0 0.00 0.00 0.00 69 1013.0
20260501210003 14 144 3.2 9.7 0.00 0.00 0.00 68 1013.0
20260501205503 14 239 3.2 8.0 0.00 0.00 0.00 68 1012.9
20260501204504 14 263 3.2 8.0 0.00 0.00 0.00 68 1013.1
20260501204004 14 205 3.2 4.8 0.00 0.00 0.00 67 1013.2
20260501203503 14 333 1.6 4.8 0.00 0.00 0.00 68 1013.3
20260501203003 15 151 3.2 8.0 0.00 0.00 0.00 65 1013.3
20260501202503 15 264 1.6 8.0 0.00 0.00 0.00 63 1013.3
20260501202004 15 290 3.2 11.3 0.00 0.00 0.00 59 1013.1
20260501201503 16 232 3.2 11.3 0.00 0.00 0.00 57 1013.1
20260501201004 16 140 1.6 4.8 0.00 0.00 0.00 54 1013.1
20260501200503 17 240 3.2 4.8 0.00 0.00 0.00 51 1013.1
20260501200003 17 208 3.2 4.8 0.00 0.00 0.00 51 1013.1